Location: ???? ??
(36.0534°N, 43.5630°E)
Time: 21:23:19
(UTC+00:00)

SL-8 Rocket - Pass Details

Date: 18 September 2019
Orbit: 956 x 991 km, 82.9° (Epoch: 12 October)

Event Time Altitude Azimuth Distance (km) Brightness Sun altitude
Rises 17:16:17 0° 354° (N) 3,660 7.4 -25.8°
Reaches altitude 10° 17:18:48 10° 355° (N) 2,706 6.6 -26.2°
Maximum altitude 17:25:00 86° 83° (E) 966 3.8 -27.4°
Enters shadow 17:25:53 68° 164° (SSE) 1,029 3.9 -27.5°
